Regional Weather Roundup
Issued by NWS

Home | Current Version | Previous Version | Graphics & Text | Print | Product List | Glossary On
Versions: 1 2 3 4 5 6 7 8 9 10 11 12 13 14 15 16 17 18 19 20 21 22 23 24 25 26 27 28 29 30 31 32 33 34 35 36 37 38 39 40 41 42 43 44 45 46 47 48 49 50
000
ASUS43 KMKX 220900
RWRWI

WISCONSIN REGIONAL WEATHER ROUNDUP
NATIONAL WEATHER SERVICE MILWAUKEE/SULLIVAN WI
300 AM CST MON DEC 22 2014

NOTE: "FAIR" INDICATES FEW OR NO CLOUDS BELOW 12,000 FEET WITH NO
SIGNIFICANT WEATHER AND/OR OBSTRUCTIONS TO VISIBILITY.

WIZ001-002-006>008-014>016-023>028-221000-
NORTHWEST WISCONSIN

CITY           SKY/WX    TMP DP  RH WIND       PRES   REMARKS
SUPERIOR ARPT  LGT RAIN  35  33  94 S5        29.74S WCI  31
ASHLAND        MIX PCPN  34  33  96 SE3       29.77S
HAYWARD        LGT RAIN  35  32  88 S8        29.75S WCI  29
SIREN          CLOUDY    34  33  96 S9        29.73S WCI  27
CUMBERLAND     LGT RAIN  32  32 100 SE9       29.73F WCI  24
RICE LAKE      MIX PCPN  34  33  96 SE9       29.76F WCI  26
CHETEK         LGT RAIN  34  33  96 SE9       29.77S WCI  26
LADYSMITH      LGT RAIN  35  34  96 SE9       29.80S WCI  28
EAU CLAIRE     NOT AVBL
MENOMONIE      DRIZZLE   36  35  97 SE9       29.77S WCI  29
NEW RICHMOND   RAIN      36  36 100 S10       29.72S WCI  29
OSCEOLA        LGT RAIN  37  37 100 SE12G17   29.74S WCI  29
$$

WIZ003>005-009-010-017-018-221000-
NORTH CENTRAL WISCONSIN

CITY           SKY/WX    TMP DP  RH WIND       PRES   REMARKS
MANITOWISH WTR CLOUDY    32  32 100 S9        29.80R FOG     WCI  24
ARBOR VITAE    CLOUDY    34  33  94 S8G16     29.81S FOG     WCI  27
WOODRUFF       CLOUDY    34  33  94 S8G16     29.81S FOG     WCI  27
RHINELANDER    CLOUDY    32  31  96 S8G20     29.83S FOG     WCI  25
EAGLE RIVER    CLOUDY    32  32 100 S7        29.82S FOG     WCI  26
LAND O LAKES   CLOUDY    33  32  96 S8        29.83S WCI  26
PHILLIPS       CLOUDY    33  32  98 S10       29.79S FOG     WCI  24
TOMAHAWK       LGT RAIN  32  32  99 CALM      29.83S
MEDFORD        LGT SNOW  32  32  99 SE10G16   29.81F WCI  24
MERRILL        LGT SNOW  33  32  99 S5        29.85F WCI  28
$$

WIZ029-030-035-036-043>047-221000-
CENTRAL WISCONSIN

CITY           SKY/WX    TMP DP  RH WIND       PRES   REMARKS
WAUSAU         CLOUDY    33  31  92 SE7       29.85S FOG     WCI  27
MOSINEE        CLOUDY    32  32 100 SE8       29.87S FOG     WCI  25
MARSHFIELD     CLOUDY    34  31  88 S12       29.83F FOG     WCI  25
STEVENS POINT  LGT RAIN  32  30  94 SE8       29.88S WCI  25
WAUPACA        CLOUDY    36  31  82 SE8       29.92S WCI  30
WAUTOMA        CLOUDY    36  32  87 S7        29.91F WCI  30
WISC RAPIDS    CLOUDY    34  29  82 S8        29.88S WCI  27
CAMP DOUGLAS   CLOUDY    34  34 100 SE8       29.85F WCI  27
$$

WIZ011>013-019>022-031-037>040-048>050-221000-
NORTHEAST WISCONSIN

CITY           SKY/WX    TMP DP  RH WIND       PRES   REMARKS
ANTIGO         LGT SNOW  31  31  99 S9        29.86F WCI  23
SHAWANO        CLOUDY    37  31  81 S7        29.93S WCI  31
OCONTO         CLOUDY    35  32  88 S8        29.95F WCI  28
STURGEON BAY   CLOUDY    36  30  80 S14G20    29.97F WCI  27
GREEN BAY      CLOUDY    35  31  85 S8        29.94F WCI  29
MANITOWOC      NOT AVBL
APPLETON       CLOUDY    34  30  86 SE12      29.93F WCI  25
CLINTONVILLE   CLOUDY    34  30  86 S9        29.92S WCI  26
OSHKOSH        CLOUDY    35  29  78 S12       29.93S WCI  27
$$

WIZ032>034-041-042-053>061-221000-
SOUTHWEST WISCONSIN

CITY           SKY/WX    TMP DP  RH WIND       PRES   REMARKS
LA CROSSE      CLOUDY    38  33  82 S10       29.81F WCI  31
SPARTA         CLOUDY    35  32  88 SE12      29.84F WCI  27
VIROQUA        CLOUDY    33  33 100 SE12      29.82F WCI  24
BOSCOBEL       CLOUDY    37  31  78 VRB5      29.86F WCI  33
PRAIRIE DU CHI CLOUDY    36  31  82 SE8       29.84F WCI  30
PLATTEVILLE    CLOUDY    35  32  90 SE12      29.87S WCI  26
$$

WIZ056-057-062-063-064-067-068-221000-
SOUTH CENTRAL WISCONSIN

CITY           SKY/WX    TMP DP  RH WIND       PRES   REMARKS
REEDSBURG      CLOUDY    34  31  90 SE7       29.87F WCI  27
BARABOO/DELLS  MIX PCPN  33  31  94 S6        29.89S WCI  27
LONE ROCK      NOT AVBL
MINERAL POINT  LGT SNOW  34  32  93 SE9       29.86F WCI  26
MADISON        CLOUDY    34  29  82 S15       29.90F WCI  24
MIDDLETON      CLOUDY    36  31  83 S10       29.90F WCI  28
WATERTOWN      CLOUDY    33  31  91 SE7       29.93S WCI  27
MONROE         CLOUDY    32  32 100 SE9       29.89F WCI  24
JANESVILLE     CLOUDY    34  32  93 S8        29.93S FOG     WCI  27
$$

WIZ051-052-058>065-066-070>072-221000-
SOUTHEAST WISCONSIN

CITY           SKY/WX    TMP DP  RH WIND       PRES   REMARKS
MILWAUKEE      CLOUDY    34  28  79 S9        29.97F WCI  27
WAUKESHA       CLOUDY    32  28  86 SE10      29.96F WCI  24
MILWAUKEE/TIMM CLOUDY    32  28  86 S9        29.98S WCI  24
RACINE         CLOUDY    34  29  82 S10       29.99F WCI  26
BURLINGTON     CLOUDY    32  28  84 S7        29.96F WCI  25
KENOSHA        CLOUDY    31  27  85 S7        29.97F FOG     WCI  24
FOND DU LAC    CLOUDY    35  29  78 S9        29.94S WCI  28
SHEBOYGAN      CLOUDY    35  30  82 S12       29.96F WCI  27
WEST BEND      CLOUDY    32  28  86 S8        29.96S WCI  25
JUNEAU         CLOUDY    33  29  86 SE9       29.94S WCI  25
$$

LSZ147-162-221000-
LAKE SUPERIOR

STATION/POSITION TIME  TEMP    WIND        PRES    WAVE
                       AIR SEA DIR/SP/G            HT/PER
                 (UTC) (F)     (DEG/KT/KT) (MB)    (FT/S)
DEVILS ISLAND    0800   36     150/  7/ 10 1008.9F
PORT WING        0840   36     160/  3/  6 1007.8F
SAXON HARBOR     0800   38      CALM  /  7 1008.5S
$$

LMZ867-665-643>646-221000-
LAKE MICHIGAN

STATION/POSITION TIME  TEMP    WIND        PRES    WAVE
                       AIR SEA DIR/SP/G            HT/PER
                 (UTC) (F)     (DEG/KT/KT) (MB)    (FT/S)
CHAMBERS ISLAND  0800   37     160/  4/ 10 1015.2R
NORTHPORT PIER   0800   36     150/ 13/ 20 1015.2R
SISTER BAY       0813          190/ 17/ 21   N/A
ALGOMA LAKESHORE 0815          230/ 19/ 26   N/A
KEWAUNEE LAKESHO 0800   37     190/ 13/ 17 1014.4S
SHEBOYGAN LAKESH 0800   37 36  180/ 19/ 21 1015.7S
PORT WASHINGTON  0800   36     180/ 14/ 20 1016.3S
MILWAUKEE LAKESH 0800   35     170/ 12/ 14   N/A
KENOSHA   LAKESH 0800   35     170/ 20/ 22 1015.2S
$$

TC  - TEMPERATURE IN CELSIUS
VSB - VISIBILITY IN STATUTE MILES
WCI - WIND CHILL INDEX
HX  - HEAT INDEX



USA.gov is the U.S. government's official web portal to all federal, state and local government web resources and services.